This is the latest recevied weather packets stored in our database for station/object IW1RID-3. If no packets are shown the sender has not sent any weather packets the latest 10 day(s).
| Time | Temp. | Humidity | Pressure | Rain* | Wind** | Luminosity | Snow |
|---|---|---|---|---|---|---|---|
| 1787934892 | 29.44° C | 63% | 1071.6 hPa | - | - | - | - |
| 1787933687 | 29.44° C | 59% | 1071.2 hPa | - | - | - | - |
| 1787932485 | 29.44° C | 58% | 1072.2 hPa | - | - | - | - |
| 1787931277 | 30° C | 62% | 1071.5 hPa | - | - | - | - |
| 1787930073 | 29.44° C | 67% | 1071 hPa | - | - | - | - |
| 1787928868 | 30° C | 71% | 1071.2 hPa | - | - | - | - |
| 1787927664 | 29.44° C | 72% | 1072 hPa | - | - | - | - |
| 1787926458 | 30° C | 66% | 1072.4 hPa | - | - | - | - |
| 1787925254 | 31.67° C | 58% | 1071.9 hPa | - | - | - | - |
| 1787924049 | 31.67° C | 57% | 1071.9 hPa | - | - | - | - |
| 1787922844 | 32.22° C | 70% | 1072.4 hPa | - | - | - | - |
| 1787921639 | 33.33° C | 65% | 1072.5 hPa | - | - | - | - |
| 1787920435 | 31.67° C | 70% | 1072.3 hPa | - | - | - | - |
| 1787919229 | 31.67° C | 59% | 1072.6 hPa | - | - | - | - |
| 1787918024 | 31.11° C | 50% | 1073 hPa | - | - | - | - |
| 1787916819 | 30° C | 53% | 1073 hPa | - | - | - | - |
| 1787915615 | 29.44° C | 55% | 1072.7 hPa | - | - | - | - |
| 1787914410 | 28.33° C | 56% | 1072.7 hPa | - | - | - | - |
| 1787913206 | 28.33° C | 57% | 1072.7 hPa | - | - | - | - |
| 1787912001 | 28.33° C | 56% | 1072.7 hPa | - | - | - | - |
| 1787910796 | 26.67° C | 60% | 1072.4 hPa | - | - | - | - |
| 1787909592 | 26.67° C | 61% | 1072.5 hPa | - | - | - | - |
| 1787908387 | 26.67° C | 61% | 1073.3 hPa | - | - | - | - |
| 1787907182 | 25.56° C | 66% | 1073.6 hPa | - | - | - | - |
| 1787905977 | 24.44° C | 73% | 1074.3 hPa | - | - | - | - |
* Rain since midnight (hover to see other rain measurements)
** Current wind speed in m/s (hover to see current wind gust speed)